Home > Weather > Arendal > Past weeks

Flag for Norway Past Weather in Arendal, Norway — Yesterday and Last 2 Weeks

Now
57 °F

Cool.


Feels Like: 54 °F
Forecast: 51 / 60 °F
Wind: 14 mph from Southeast

Location: Torungen Fyr

Current Time: Jul 1, 2016 at 1:39:27 PM

Latest Report: Jul 1, 2016 at 1:00 PM


Visibility: N/A

Pressure: 29.64 "Hg

Humidity: 92%

Dew Point: 54 °F

Location of ArendalLocation

Past Weather in Arendal — Graph

°F

Arendal Temperature Yesterday

Maximum temperature yesterday: 59 °F (at 1:00 PM)
Minimum temperature yesterday: 57 °F (at 6:00 AM)
Average temperature yesterday: 58 °F

High & Low Weather Summary for the Past Weeks

 TemperatureHumidityPressure
High67 °F (Jun 17, 1:00 PM)98% (Jun 24, 5:00 AM)30.19 "Hg (Jun 24, 5:00 AM)
Low52 °F (Jun 20, 5:00 AM)60% (Jun 28, 10:00 AM)29.58 "Hg (Jun 17, 8:00 PM)
Average60 °F86%29.84 "Hg
* Reported Jun 16 12:00 PM — Jul 1 12:00 PM, Arendal, Weather by CustomWeather, © 2016

Note: Actual official high and low records may vary slightly from our data, if they occured in-between our weather recording intervals... More about our weather records

Advertising

Arendal Weather History for the Previous 24 Hours

Scroll right to see more
 ConditionsComfort  
Time TempWeatherWind HumidityBarometerVisibility
12:00 PM
Fri, Jul 1
57 °FCool.8 mph84%29.67 "HgN/A
11:00 AM57 °FCool.8 mph85%29.67 "HgN/A
10:00 AM56 °FCool.5 mph91%29.68 "HgN/A
9:00 AM58 °FCool.9 mph84%29.70 "HgN/A
8:00 AM56 °FCool.3 mph92%29.71 "HgN/A
7:00 AM55 °FCool.1 mph92%29.72 "HgN/A
6:00 AM54 °FCool.3 mph93%29.72 "HgN/A
5:00 AM55 °FCool.3 mph93%29.74 "HgN/A
4:00 AM55 °FCool.1 mph91%29.75 "HgN/A
2:00 AM57 °FCool.3 mph88%29.77 "HgN/A
1:00 AM57 °FCool.7 mph88%29.77 "HgN/A
12:00 AM57 °FCool.7 mph87%29.78 "HgN/A
11:00 PM
Thu, Jun 30
57 °FCool.7 mph87%29.77 "HgN/A
10:00 PM58 °FCool.9 mph85%29.77 "HgN/A
9:00 PM58 °FCool.13 mph84%29.75 "HgN/A
8:00 PM58 °FCool.13 mph82%29.74 "HgN/A
7:00 PM59 °FCool.14 mph83%29.74 "HgN/A
6:00 PM59 °FCool.14 mph83%29.73 "HgN/A
5:00 PM59 °FCool.16 mph79%29.72 "HgN/A
4:00 PM59 °FCool.16 mph76%29.72 "HgN/A
3:00 PM59 °FCool.14 mph79%29.70 "HgN/A
2:00 PM59 °FCool.14 mph79%29.69 "HgN/A
1:00 PM59 °FCool.14 mph77%29.67 "HgN/A
Weather by CustomWeather, © 2016

See weather overviewHow to use our weather pages